Wind_Speed
6 6 6 5 4 3 3 4 3 3 3 3 3 3 3 3 3 2 3 3 4 4 4 4 4 4 4 4 4 3 2 3 3 2 2 2 2 1 1 1 2 2 3
7 7 6 5 4 3 4 3 3 3 3 3 3 3 3 2 2 3 3 3 4 4 4 4 4 4 4 4 4 4 3 3 3 2 2 2 2 2 2 2 2 3 3
7 7 6 5 4 4 4 4 3 3 3 2 2 2 3 2 2 2 3 3 3 4 4 4 3 3 3 3 3 3 4 3 2 2 2 3 3 2 2 2 2 3 3
7 7 6 6 4 4 3 3 3 3 2 2 2 2 2 2 2 3 3 3 3 3 3 3 3 2 2 2 2 3 4 3 2 2 2 3 3 2 3 3 3 3 4
6 6 6 6 5 4 3 3 4 3 2 2 2 2 2 2 2 3 3 3 3 3 3 4 4 3 2 2 2 3 3 3 3 3 3 3 4 4 4 4 4 4 4
7 7 6 6 5 5 4 3 3 3 3 2 3 3 2 2 2 3 3 3 3 3 3 3 3 2 2 2 2 2 3 4 4 4 3 4 5 5 5 5 5 5 5
7 7 6 5 5 5 5 4 4 4 3 3 3 3 3 3 3 3 3 3 3 2 2 2 2 2 2 1 1 2 3 4 5 4 4 4 4 4 5 5 5 5 5
8 7 6 5 5 5 4 5 4 4 3 4 4 3 3 3 3 3 3 2 2 1 1 1 2 2 2 2 3 3 4 5 6 4 4 5 5 5 5 5 5 5 6
8 7 7 6 6 5 5 5 5 4 4 5 5 4 3 3 3 3 3 2 1 1 0 1 1 2 2 2 3 3 4 5 5 5 5 6 5 5 5 5 6 6 6
9 8 7 6 6 6 5 5 5 4 4 4 4 4 4 4 3 3 3 3 2 1 1 0 2 2 3 3 3 4 4 4 5 5 5 6 6 5 5 5 6 6 6
9 9 8 7 7 6 6 5 5 5 4 4 3 3 3 4 4 4 4 3 2 2 2 1 1 2 2 2 3 4 4 5 5 4 5 5 5 5 5 6 7 7 7
10 9 9 9 8 7 6 5 5 5 5 4 4 5 5 4 4 4 4 3 2 2 2 2 2 2 2 2 3 3 4 4 4 4 5 5 5 5 5 6 7 8 8
10 9 9 10 9 8 8 7 6 5 5 4 4 5 6 5 5 4 4 3 2 2 2 2 3 3 3 3 2 3 3 3 4 3 3 4 5 5 5 6 7 7 7
10 10 10 10 10 9 8 7 7 6 6 5 6 6 6 6 5 4 4 3 3 3 3 2 3 3 3 3 3 3 4 4 4 4 5 5 5 5 6 6 6 6 6
10 11 11 10 9 9 8 7 7 7 7 6 6 6 6 6 5 4 4 3 3 3 3 3 3 3 3 3 3 4 3 3 3 4 4 4 4 4 5 5 5 5 6
10 10 10 9 9 8 8 7 7 7 7 7 7 6 6 6 5 5 4 4 4 4 3 3 4 3 3 3 4 4 3 3 3 3 3 3 4 4 4 4 4 5 6
10 10 9 9 8 8 8 8 6 6 7 6 6 6 6 5 5 5 5 5 5 5 4 4 3 3 3 3 3 3 4 4 4 4 4 4 4 4 4 4 4 5 6
8 8 9 9 8 8 8 8 7 5 6 6 6 6 6 5 5 5 5 5 5 5 5 4 4 4 3 3 3 4 4 4 5 5 5 5 5 4 4 4 5 5 6
7 7 8 8 8 8 8 8 7 6 6 5 6 6 6 5 5 5 5 6 5 5 5 5 5 4 4 4 3 3 3 4 5 5 4 5 5 5 6 6 6 5 6
7 6 6 7 7 8 8 7 7 6 6 5 5 6 6 6 6 5 6 6 6 5 4 5 4 4 4 4 4 4 4 4 5 5 5 5 5 6 6 6 7 7 7
7 6 6 6 7 7 7 7 6 6 6 6 5 5 4 4 5 5 5 5 5 5 4 5 5 5 5 5 5 5 5 5 5 6 6 6 7 7 7 7 7 7 8
6 5 5 5 6 6 7 6 6 5 5 5 5 4 4 4 4 5 5 5 5 4 4 4 4 5 5 5 5 6 5 5 6 6 6 7 7 8 7 7 7 7 8
5 5 5 5 5 5 6 6 6 6 5 6 6 5 5 5 5 5 5 5 5 5 4 4 4 4 5 5 6 6 6 6 7 7 8 7 8 9 8 9 8 8 9
5 5 4 4 5 5 5 6 5 5 5 6 6 6 5 5 5 5 5 5 4 4 4 5 5 5 5 5 6 6 6 7 7 8 8 8 8 9 9 10 10 10 10
4 4 4 4 4 4 4 5 5 5 5 5 5 5 5 5 5 6 6 5 5 5 5 5 6 6 6 6 6 6 6 7 7 8 8 9 10 10 10 11 12 12 11
3 4 4 3 3 4 4 4 4 4 5 4 4 4 4 4 5 5 6 6 5 6 6 7 6 6 7 7 7 7 7 8 9 8 8 9 11 11 12 12 13 12 12
Wind_Direction
65 64 59 57 61 72 97 115 124 133 142 157 168 162 162 166 169 163 158 172 169 164 165 163 162 166 166 176 183 189 203 209 201 200 199 202 201 230 289 296 277 281 274
61 61 59 56 53 62 76 101 121 132 141 162 173 177 171 164 171 171 174 178 178 174 166 158 165 173 171 179 185 188 199 211 218 226 212 207 224 253 261 265 281 286 281
57 59 56 54 55 61 68 90 111 117 122 136 161 172 171 165 162 163 165 166 167 173 171 161 162 177 187 184 190 205 207 223 225 229 230 236 244 262 268 270 274 278 281
52 57 55 52 54 62 61 80 102 103 103 120 148 160 166 166 163 160 166 164 158 166 177 179 180 186 201 211 220 228 224 225 236 249 258 261 258 268 270 282 283 275 277
56 54 49 50 58 65 58 66 101 98 93 117 138 146 153 159 159 160 170 171 166 172 180 184 184 187 205 235 253 242 230 228 255 260 270 277 268 266 283 287 286 283 277
56 51 48 47 56 65 68 79 99 91 88 101 136 133 132 136 154 155 167 165 163 173 178 177 179 188 213 250 270 254 242 245 252 256 269 279 275 268 281 283 284 283 282
57 55 52 51 56 67 71 80 79 88 85 96 123 130 143 148 160 153 147 154 162 177 188 189 195 214 234 283 297 261 256 258 252 257 270 282 284 283 286 289 289 286 292
53 54 55 58 65 73 75 71 70 85 93 99 114 112 126 133 138 135 142 155 175 182 187 196 206 217 255 273 277 280 280 271 264 279 280 278 274 273 277 282 281 287 291
53 56 57 62 67 72 77 81 71 75 87 102 114 109 109 122 137 133 136 140 110 120 200 235 233 261 278 283 285 289 287 283 281 279 277 280 280 274 277 282 287 291 291
54 57 55 60 63 64 70 77 80 77 77 90 106 101 105 117 120 117 119 111 101 91 70 346 311 296 291 284 281 290 285 281 291 288 285 287 284 282 281 286 289 292 293
54 57 60 60 66 70 72 76 77 68 74 90 91 81 105 114 112 108 110 99 92 82 67 32 7 340 305 286 280 289 291 291 294 296 298 301 306 296 279 273 279 286 288
53 54 57 59 68 67 71 73 75 72 71 83 89 86 95 101 101 100 101 89 72 66 52 36 29 18 355 321 296 301 304 297 304 296 302 301 299 289 282 283 283 282 282
51 54 54 60 66 66 67 70 75 71 63 63 78 84 88 92 93 99 99 91 78 58 30 9 356 358 351 342 322 309 328 332 318 307 302 309 297 289 289 290 289 289 288
50 51 54 57 61 65 64 64 68 70 62 63 72 79 81 85 81 84 76 65 56 39 30 25 15 8 359 351 350 349 345 347 332 316 301 304 301 294 293 295 291 290 297
55 55 54 51 52 55 59 60 60 67 64 59 67 73 71 73 72 75 62 55 48 30 22 22 20 18 7 359 2 4 6 0 344 323 306 297 309 304 295 294 292 298 303
54 53 50 52 51 53 55 56 59 64 62 65 73 73 70 69 68 66 60 55 46 32 23 12 8 4 359 4 3 0 1 5 350 332 325 322 323 320 310 309 305 312 315
52 49 48 51 53 54 56 59 63 64 68 68 73 69 67 67 63 58 53 46 37 28 21 10 359 349 357 360 360 357 357 358 349 343 337 338 337 328 318 322 326 321 315
51 48 48 48 48 51 55 57 59 60 66 64 66 67 67 67 63 53 44 39 36 31 24 19 11 14 17 3 1 2 357 350 342 345 341 336 332 326 325 332 333 334 331
47 48 46 42 42 45 49 53 57 63 65 60 62 63 67 65 57 48 43 39 39 34 27 23 23 30 23 20 10 358 354 349 347 349 340 335 334 334 337 338 334 331 332
44 43 39 37 38 39 42 47 53 56 56 53 57 61 63 59 53 49 46 40 37 37 30 26 20 19 15 10 2 354 347 347 352 352 346 339 333 331 331 330 327 324 327
36 38 37 35 36 39 41 44 47 48 48 44 41 48 54 51 48 43 36 38 43 39 32 25 17 13 6 360 354 352 350 352 353 339 328 331 333 334 333 328 329 325 319
30 31 35 33 32 37 41 41 39 40 41 41 39 47 51 49 42 36 38 37 30 22 15 10 8 8 3 355 353 358 356 356 349 344 337 338 336 332 336 338 333 329 324
26 29 31 31 25 28 33 34 30 30 37 43 44 44 46 47 42 35 29 22 18 13 11 7 2 356 353 356 360 359 359 358 351 346 346 344 339 334 333 335 334 329 324
16 22 22 25 24 23 25 27 30 30 34 37 41 45 44 38 30 22 14 10 8 9 5 2 358 351 345 351 356 353 354 348 343 341 341 339 335 332 334 333 329 324 321
359 1 356 359 7 7 6 12 20 22 24 28 29 32 29 24 19 20 17 8 359 350 347 347 349 344 345 345 344 344 343 339 335 337 336 333 330 328 325 328 327 322 320
338 336 337 339 349 347 344 353 4 8 5 3 2 7 9 8 6 6 9 4 356 349 342 337 335 339 344 343 342 341 336 334 332 331 327 328 329 326 322 323 324 321 317
Height
5892 5891 5891 5890 5890 5890 5890 5890 5890 5891 5891 5891 5892 5892 5892 5892 5892 5892 5892 5893 5893 5893 5893 5894 5894 5894 5894 5895 5895 5895 5896 5895 5895 5895 5895 5895 5896 5895 5895 5894 5894 5894 5893
5893 5892 5892 5891 5891 5891 5891 5891 5891 5891 5891 5891 5892 5892 5892 5892 5892 5891 5892 5892 5893 5893 5893 5894 5894 5894 5895 5895 5895 5896 5896 5895 5895 5895 5895 5895 5895 5895 5895 5894 5894 5893 5893
5894 5893 5893 5892 5892 5892 5891 5891 5891 5891 5891 5891 5891 5891 5891 5891 5891 5891 5892 5892 5892 5893 5893 5894 5894 5894 5895 5895 5895 5895 5895 5896 5895 5895 5895 5895 5895 5894 5894 5893 5893 5893 5892
5895 5894 5894 5893 5893 5892 5892 5892 5892 5891 5891 5891 5891 5891 5891 5891 5891 5891 5892 5892 5893 5893 5894 5894 5894 5895 5895 5895 5895 5895 5895 5895 5895 5895 5895 5894 5894 5894 5893 5893 5892 5892 5892
5896 5895 5895 5894 5893 5893 5893 5892 5892 5892 5891 5891 5891 5891 5891 5891 5891 5891 5892 5892 5893 5893 5894 5894 5894 5895 5895 5895 5895 5894 5894 5894 5894 5894 5894 5894 5894 5893 5893 5892 5892 5891 5891
5897 5896 5896 5895 5894 5894 5893 5893 5893 5892 5892 5891 5891 5891 5891 5892 5892 5891 5891 5892 5893 5893 5893 5894 5894 5895 5895 5894 5894 5894 5894 5893 5893 5893 5893 5893 5893 5892 5892 5892 5891 5891 5890
5898 5897 5896 5896 5895 5894 5894 5893 5893 5893 5893 5892 5891 5892 5892 5892 5892 5892 5892 5892 5893 5893 5893 5893 5894 5894 5894 5894 5894 5893 5893 5893 5892 5892 5892 5892 5892 5891 5891 5891 5890 5890 5889
5899 5898 5897 5896 5895 5895 5895 5894 5894 5894 5893 5892 5892 5892 5892 5892 5892 5893 5893 5893 5892 5893 5893 5893 5893 5893 5893 5893 5893 5893 5892 5892 5892 5891 5891 5891 5890 5890 5890 5889 5889 5888 5888
5899 5899 5898 5897 5896 5895 5895 5895 5895 5894 5894 5893 5893 5893 5893 5893 5893 5893 5892 5893 5893 5893 5893 5893 5893 5893 5892 5892 5892 5892 5892 5891 5891 5890 5890 5890 5889 5889 5888 5888 5887 5887 5886
5900 5899 5899 5898 5897 5896 5895 5895 5895 5895 5894 5894 5894 5893 5893 5893 5893 5893 5893 5893 5893 5893 5893 5893 5892 5892 5892 5891 5891 5891 5890 5890 5890 5889 5889 5888 5888 5887 5887 5886 5886 5886 5885
5901 5900 5899 5898 5897 5897 5896 5896 5896 5896 5895 5895 5894 5893 5893 5893 5893 5893 5893 5893 5893 5893 5893 5892 5892 5891 5891 5890 5890 5890 5890 5889 5888 5888 5888 5887 5886 5886 5885 5885 5884 5884 5883
5902 5901 5900 5899 5898 5898 5897 5896 5896 5896 5896 5895 5895 5894 5894 5894 5894 5893 5893 5894 5894 5893 5893 5892 5891 5891 5890 5890 5889 5889 5888 5888 5887 5887 5886 5886 5885 5884 5884 5883 5883 5882 5881
5902 5902 5901 5900 5899 5899 5898 5897 5897 5896 5896 5896 5895 5895 5894 5894 5894 5894 5894 5894 5894 5893 5893 5892 5891 5891 5890 5890 5889 5888 5887 5887 5886 5886 5885 5885 5884 5883 5882 5882 5881 5880 5879
5904 5902 5901 5901 5900 5900 5899 5898 5897 5897 5896 5896 5896 5895 5895 5895 5894 5894 5894 5894 5894 5893 5893 5892 5891 5890 5890 5889 5888 5888 5887 5886 5886 5885 5884 5884 5883 5882 5881 5880 5880 5879 5878
5905 5904 5903 5902 5901 5900 5899 5899 5898 5898 5897 5896 5896 5896 5895 5895 5895 5894 5894 5894 5893 5893 5892 5891 5891 5890 5889 5889 5888 5887 5886 5886 5885 5884 5883 5882 5881 5880 5879 5879 5878 5877 5876
5907 5905 5905 5904 5902 5901 5901 5900 5899 5898 5898 5897 5897 5896 5896 5896 5895 5895 5894 5894 5893 5892 5892 5891 5890 5890 5889 5888 5888 5887 5887 5886 5885 5883 5882 5881 5880 5879 5878 5877 5877 5876 5875
5908 5907 5906 5905 5904 5903 5902 5901 5900 5899 5898 5898 5898 5897 5897 5896 5896 5895 5894 5894 5893 5892 5891 5890 5890 5889 5889 5888 5888 5887 5886 5885 5884 5883 5882 5881 5879 5878 5877 5877 5876 5875 5874
5909 5908 5907 5906 5905 5904 5902 5901 5900 5899 5899 5899 5898 5898 5897 5896 5896 5895 5894 5893 5892 5891 5891 5890 5889 5888 5888 5888 5887 5887 5886 5885 5884 5882 5881 5880 5878 5877 5876 5876 5875 5874 5873
5910 5909 5908 5907 5906 5904 5903 5902 5901 5900 5900 5899 5898 5898 5897 5897 5896 5895 5894 5893 5892 5891 5891 5890 5889 5889 5888 5888 5887 5886 5885 5884 5883 5882 5881 5879 5878 5877 5876 5875 5874 5873 5872
5910 5909 5908 5907 5906 5905 5904 5903 5902 5901 5900 5899 5899 5898 5897 5896 5896 5895 5894 5893 5892 5891 5891 5890 5889 5889 5888 5887 5887 5886 5885 5884 5883 5881 5880 5879 5878 5876 5875 5874 5873 5872 5870
5910 5909 5908 5908 5907 5906 5905 5903 5902 5901 5900 5900 5899 5898 5897 5897 5896 5895 5894 5893 5892 5891 5891 5890 5889 5889 5888 5887 5886 5885 5884 5883 5882 5881 5879 5878 5877 5875 5874 5873 5871 5870 5869
5910 5910 5909 5908 5907 5906 5905 5904 5903 5902 5901 5900 5899 5898 5897 5897 5896 5895 5894 5893 5892 5891 5891 5890 5889 5888 5887 5887 5886 5885 5884 5883 5882 5880 5879 5877 5875 5874 5873 5871 5870 5869 5867
5910 5910 5909 5908 5907 5906 5905 5904 5903 5902 5901 5900 5899 5898 5897 5897 5896 5895 5894 5893 5892 5891 5890 5889 5888 5888 5887 5886 5885 5885 5884 5882 5881 5880 5878 5876 5875 5873 5872 5870 5869 5867 5866
5910 5910 5909 5908 5907 5906 5905 5904 5903 5903 5902 5900 5899 5898 5898 5897 5896 5895 5894 5893 5892 5891 5890 5889 5888 5887 5886 5886 5885 5884 5883 5882 5880 5879 5877 5875 5874 5872 5870 5869 5867 5866 5864
5910 5909 5909 5908 5907 5906 5905 5904 5903 5903 5902 5901 5900 5899 5898 5897 5896 5895 5894 5892 5891 5891 5890 5889 5887 5887 5886 5885 5884 5883 5881 5880 5879 5877 5876 5874 5872 5870 5869 5867 5865 5863 5861
5909 5909 5908 5908 5907 5906 5905 5904 5903 5902 5901 5901 5900 5899 5898 5897 5896 5894 5893 5892 5891 5890 5889 5888 5887 5886 5885 5884 5883 5881 5880 5879 5877 5876 5874 5873 5871 5869 5867 5865 5863 5861 5859